Location: Estes Park
(40.3770°N, 105.5210°W)
Time: 00:06:59
(UTC-06:00)

ISS - Pass Details

Date: 08 October 2017
Orbit: 400 x 408 km, 51.6° (Epoch: 24 October)

Event Time Altitude Azimuth Distance (km) Brightness Sun altitude
Rises 19:21:25 0° 311° (NW) 2,320 0.9 -10.1°
Reaches altitude 10° 19:24:20 10° 339° (NNW) 1,462 -0.7 -10.7°
Maximum altitude 19:26:03 13° 11° (N) 1,271 -1.4 -11.0°
Drops below altitude 10° 19:27:46 10° 43° (NE) 1,463 -1.4 -11.4°
Enters shadow 19:27:54 10° 45° (NE) 1,490 -1.4 -11.4°
